Index of /20260428/WXO-DD/model_rdps/10km/00/065
Name Last modified Size Description
Parent Directory -
20260428T00Z_MSC_RDPS_AbsoluteVorticity_IsbL-0250_RLatLon0.09_PT065H.grib2 2026-04-28 02:59 618K
20260428T00Z_MSC_RDPS_AbsoluteVorticity_IsbL-0500_RLatLon0.09_PT065H.grib2 2026-04-28 02:59 569K
20260428T00Z_MSC_RDPS_AbsoluteVorticity_IsbL-0700_RLatLon0.09_PT065H.grib2 2026-04-28 02:59 616K
20260428T00Z_MSC_RDPS_AbsoluteVorticity_IsbL-0850_RLatLon0.09_PT065H.grib2 2026-04-28 02:59 774K
20260428T00Z_MSC_RDPS_AirTemp_AGL-120m_RLatLon0.09_PT065H.grib2 2026-04-28 02:59 396K
20260428T00Z_MSC_RDPS_AirTemp_AGL-2m_RLatLon0.09_PT065H.grib2 2026-04-28 02:59 636K
20260428T00Z_MSC_RDPS_AirTemp_AGL-40m_RLatLon0.09_PT065H.grib2 2026-04-28 02:59 407K
20260428T00Z_MSC_RDPS_AirTemp_AGL-80m_RLatLon0.09_PT065H.grib2 2026-04-28 02:59 401K
20260428T00Z_MSC_RDPS_AirTemp_IsbL-0001_RLatLon0.09_PT065H.grib2 2026-04-28 02:59 326K
20260428T00Z_MSC_RDPS_AirTemp_IsbL-0005_RLatLon0.09_PT065H.grib2 2026-04-28 02:59 291K
20260428T00Z_MSC_RDPS_AirTemp_IsbL-0010_RLatLon0.09_PT065H.grib2 2026-04-28 02:59 303K
20260428T00Z_MSC_RDPS_AirTemp_IsbL-0020_RLatLon0.09_PT065H.grib2 2026-04-28 02:59 320K
20260428T00Z_MSC_RDPS_AirTemp_IsbL-0030_RLatLon0.09_PT065H.grib2 2026-04-28 02:59 343K
20260428T00Z_MSC_RDPS_AirTemp_IsbL-0050_RLatLon0.09_PT065H.grib2 2026-04-28 02:59 315K
20260428T00Z_MSC_RDPS_AirTemp_IsbL-0100_RLatLon0.09_PT065H.grib2 2026-04-28 02:59 424K
20260428T00Z_MSC_RDPS_AirTemp_IsbL-0150_RLatLon0.09_PT065H.grib2 2026-04-28 02:59 420K
20260428T00Z_MSC_RDPS_AirTemp_IsbL-0175_RLatLon0.09_PT065H.grib2 2026-04-28 02:59 409K
20260428T00Z_MSC_RDPS_AirTemp_IsbL-0200_RLatLon0.09_PT065H.grib2 2026-04-28 02:59 414K
20260428T00Z_MSC_RDPS_AirTemp_IsbL-0225_RLatLon0.09_PT065H.grib2 2026-04-28 02:59 417K
20260428T00Z_MSC_RDPS_AirTemp_IsbL-0250_RLatLon0.09_PT065H.grib2 2026-04-28 02:59 424K
20260428T00Z_MSC_RDPS_AirTemp_IsbL-0275_RLatLon0.09_PT065H.grib2 2026-04-28 02:59 402K
20260428T00Z_MSC_RDPS_AirTemp_IsbL-0300_RLatLon0.09_PT065H.grib2 2026-04-28 02:59 407K
20260428T00Z_MSC_RDPS_AirTemp_IsbL-0350_RLatLon0.09_PT065H.grib2 2026-04-28 02:59 421K
20260428T00Z_MSC_RDPS_AirTemp_IsbL-0400_RLatLon0.09_PT065H.grib2 2026-04-28 02:59 422K
20260428T00Z_MSC_RDPS_AirTemp_IsbL-0450_RLatLon0.09_PT065H.grib2 2026-04-28 02:59 427K
20260428T00Z_MSC_RDPS_AirTemp_IsbL-0500_RLatLon0.09_PT065H.grib2 2026-04-28 02:59 402K
20260428T00Z_MSC_RDPS_AirTemp_IsbL-0550_RLatLon0.09_PT065H.grib2 2026-04-28 02:59 421K
20260428T00Z_MSC_RDPS_AirTemp_IsbL-0600_RLatLon0.09_PT065H.grib2 2026-04-28 02:59 441K
20260428T00Z_MSC_RDPS_AirTemp_IsbL-0650_RLatLon0.09_PT065H.grib2 2026-04-28 02:59 457K
20260428T00Z_MSC_RDPS_AirTemp_IsbL-0700_RLatLon0.09_PT065H.grib2 2026-04-28 02:59 373K
20260428T00Z_MSC_RDPS_AirTemp_IsbL-0750_RLatLon0.09_PT065H.grib2 2026-04-28 02:59 407K
20260428T00Z_MSC_RDPS_AirTemp_IsbL-0800_RLatLon0.09_PT065H.grib2 2026-04-28 02:59 449K
20260428T00Z_MSC_RDPS_AirTemp_IsbL-0850_RLatLon0.09_PT065H.grib2 2026-04-28 02:59 502K
20260428T00Z_MSC_RDPS_AirTemp_IsbL-0875_RLatLon0.09_PT065H.grib2 2026-04-28 02:59 525K
20260428T00Z_MSC_RDPS_AirTemp_IsbL-0900_RLatLon0.09_PT065H.grib2 2026-04-28 02:59 535K
20260428T00Z_MSC_RDPS_AirTemp_IsbL-0925_RLatLon0.09_PT065H.grib2 2026-04-28 02:59 535K
20260428T00Z_MSC_RDPS_AirTemp_IsbL-0950_RLatLon0.09_PT065H.grib2 2026-04-28 02:59 539K
20260428T00Z_MSC_RDPS_AirTemp_IsbL-0970_RLatLon0.09_PT065H.grib2 2026-04-28 02:59 531K
20260428T00Z_MSC_RDPS_AirTemp_IsbL-0985_RLatLon0.09_PT065H.grib2 2026-04-28 02:59 519K
20260428T00Z_MSC_RDPS_AirTemp_IsbL-1000_RLatLon0.09_PT065H.grib2 2026-04-28 02:59 504K
20260428T00Z_MSC_RDPS_AirTemp_IsbL-1015_RLatLon0.09_PT065H.grib2 2026-04-28 02:59 515K
20260428T00Z_MSC_RDPS_Albedo_Sfc_RLatLon0.09_PT065H.grib2 2026-04-28 02:59 158K
20260428T00Z_MSC_RDPS_CAPE_Sfc_RLatLon0.09_PT065H.grib2 2026-04-28 02:59 1.7M
20260428T00Z_MSC_RDPS_CIN_Sfc_RLatLon0.09_PT065H.grib2 2026-04-28 02:59 1.1M
20260428T00Z_MSC_RDPS_CloudWater_EAtm_RLatLon0.09_PT065H.grib2 2026-04-28 02:59 220K
20260428T00Z_MSC_RDPS_ConvectivePrecip-Accum_Sfc_RLatLon0.09_PT065H.grib2 2026-04-28 02:59 1.2M
20260428T00Z_MSC_RDPS_DewPointDepression_AGL-2m_RLatLon0.09_PT065H.grib2 2026-04-28 02:59 420K
20260428T00Z_MSC_RDPS_DewPointDepression_IsbL-0001_RLatLon0.09_PT065H.grib2 2026-04-28 02:59 193
20260428T00Z_MSC_RDPS_DewPointDepression_IsbL-0005_RLatLon0.09_PT065H.grib2 2026-04-28 02:59 193
20260428T00Z_MSC_RDPS_DewPointDepression_IsbL-0010_RLatLon0.09_PT065H.grib2 2026-04-28 02:59 193
20260428T00Z_MSC_RDPS_DewPointDepression_IsbL-0020_RLatLon0.09_PT065H.grib2 2026-04-28 02:59 193
20260428T00Z_MSC_RDPS_DewPointDepression_IsbL-0030_RLatLon0.09_PT065H.grib2 2026-04-28 02:59 193
20260428T00Z_MSC_RDPS_DewPointDepression_IsbL-0050_RLatLon0.09_PT065H.grib2 2026-04-28 02:59 84K
20260428T00Z_MSC_RDPS_DewPointDepression_IsbL-0100_RLatLon0.09_PT065H.grib2 2026-04-28 02:59 126K
20260428T00Z_MSC_RDPS_DewPointDepression_IsbL-0150_RLatLon0.09_PT065H.grib2 2026-04-28 02:59 147K
20260428T00Z_MSC_RDPS_DewPointDepression_IsbL-0175_RLatLon0.09_PT065H.grib2 2026-04-28 02:59 179K
20260428T00Z_MSC_RDPS_DewPointDepression_IsbL-0200_RLatLon0.09_PT065H.grib2 2026-04-28 02:59 217K
20260428T00Z_MSC_RDPS_DewPointDepression_IsbL-0225_RLatLon0.09_PT065H.grib2 2026-04-28 02:59 264K
20260428T00Z_MSC_RDPS_DewPointDepression_IsbL-0250_RLatLon0.09_PT065H.grib2 2026-04-28 02:59 300K
20260428T00Z_MSC_RDPS_DewPointDepression_IsbL-0275_RLatLon0.09_PT065H.grib2 2026-04-28 02:59 306K
20260428T00Z_MSC_RDPS_DewPointDepression_IsbL-0300_RLatLon0.09_PT065H.grib2 2026-04-28 02:59 325K
20260428T00Z_MSC_RDPS_DewPointDepression_IsbL-0350_RLatLon0.09_PT065H.grib2 2026-04-28 02:59 328K
20260428T00Z_MSC_RDPS_DewPointDepression_IsbL-0400_RLatLon0.09_PT065H.grib2 2026-04-28 02:59 334K
20260428T00Z_MSC_RDPS_DewPointDepression_IsbL-0450_RLatLon0.09_PT065H.grib2 2026-04-28 02:59 342K
20260428T00Z_MSC_RDPS_DewPointDepression_IsbL-0500_RLatLon0.09_PT065H.grib2 2026-04-28 02:59 347K
20260428T00Z_MSC_RDPS_DewPointDepression_IsbL-0550_RLatLon0.09_PT065H.grib2 2026-04-28 02:59 360K
20260428T00Z_MSC_RDPS_DewPointDepression_IsbL-0600_RLatLon0.09_PT065H.grib2 2026-04-28 02:59 376K
20260428T00Z_MSC_RDPS_DewPointDepression_IsbL-0650_RLatLon0.09_PT065H.grib2 2026-04-28 02:59 383K
20260428T00Z_MSC_RDPS_DewPointDepression_IsbL-0700_RLatLon0.09_PT065H.grib2 2026-04-28 02:59 392K
20260428T00Z_MSC_RDPS_DewPointDepression_IsbL-0750_RLatLon0.09_PT065H.grib2 2026-04-28 02:59 411K
20260428T00Z_MSC_RDPS_DewPointDepression_IsbL-0800_RLatLon0.09_PT065H.grib2 2026-04-28 02:59 443K
20260428T00Z_MSC_RDPS_DewPointDepression_IsbL-0850_RLatLon0.09_PT065H.grib2 2026-04-28 02:59 475K
20260428T00Z_MSC_RDPS_DewPointDepression_IsbL-0875_RLatLon0.09_PT065H.grib2 2026-04-28 02:59 480K
20260428T00Z_MSC_RDPS_DewPointDepression_IsbL-0900_RLatLon0.09_PT065H.grib2 2026-04-28 02:59 472K
20260428T00Z_MSC_RDPS_DewPointDepression_IsbL-0925_RLatLon0.09_PT065H.grib2 2026-04-28 02:59 456K
20260428T00Z_MSC_RDPS_DewPointDepression_IsbL-0950_RLatLon0.09_PT065H.grib2 2026-04-28 02:59 451K
20260428T00Z_MSC_RDPS_DewPointDepression_IsbL-0970_RLatLon0.09_PT065H.grib2 2026-04-28 02:59 442K
20260428T00Z_MSC_RDPS_DewPointDepression_IsbL-0985_RLatLon0.09_PT065H.grib2 2026-04-28 02:59 439K
20260428T00Z_MSC_RDPS_DewPointDepression_IsbL-1000_RLatLon0.09_PT065H.grib2 2026-04-28 02:59 434K
20260428T00Z_MSC_RDPS_DewPointDepression_IsbL-1015_RLatLon0.09_PT065H.grib2 2026-04-28 02:59 426K
20260428T00Z_MSC_RDPS_DewPoint_AGL-2m_RLatLon0.09_PT065H.grib2 2026-04-28 02:59 404K
20260428T00Z_MSC_RDPS_DownwardLongwaveRadiationFlux-Accum_Sfc_RLatLon0.09_PT065H.grib2 2026-04-28 02:59 411K
20260428T00Z_MSC_RDPS_DownwardShortwaveRadiationFlux-Accum_NTAtm_RLatLon0.09_PT065H.grib2 2026-04-28 02:59 166K
20260428T00Z_MSC_RDPS_DownwardShortwaveRadiationFlux-Accum_Sfc_RLatLon0.09_PT065H.grib2 2026-04-28 02:59 591K
20260428T00Z_MSC_RDPS_FreezingRain-Accum1h_Sfc_RLatLon0.09_PT065H.grib2 2026-04-28 02:59 16K
20260428T00Z_MSC_RDPS_FreezingRain-Accum_Sfc_RLatLon0.09_PT065H.grib2 2026-04-28 02:59 222K
20260428T00Z_MSC_RDPS_GeopotentialHeight_IsbL-0001_RLatLon0.09_PT065H.grib2 2026-04-28 02:59 321K
20260428T00Z_MSC_RDPS_GeopotentialHeight_IsbL-0005_RLatLon0.09_PT065H.grib2 2026-04-28 02:59 337K
20260428T00Z_MSC_RDPS_GeopotentialHeight_IsbL-0010_RLatLon0.09_PT065H.grib2 2026-04-28 02:59 338K
20260428T00Z_MSC_RDPS_GeopotentialHeight_IsbL-0020_RLatLon0.09_PT065H.grib2 2026-04-28 02:59 304K
20260428T00Z_MSC_RDPS_GeopotentialHeight_IsbL-0030_RLatLon0.09_PT065H.grib2 2026-04-28 02:59 306K
20260428T00Z_MSC_RDPS_GeopotentialHeight_IsbL-0050_RLatLon0.09_PT065H.grib2 2026-04-28 02:59 307K
20260428T00Z_MSC_RDPS_GeopotentialHeight_IsbL-0100_RLatLon0.09_PT065H.grib2 2026-04-28 02:59 283K
20260428T00Z_MSC_RDPS_GeopotentialHeight_IsbL-0150_RLatLon0.09_PT065H.grib2 2026-04-28 02:59 227K
20260428T00Z_MSC_RDPS_GeopotentialHeight_IsbL-0175_RLatLon0.09_PT065H.grib2 2026-04-28 02:59 261K
20260428T00Z_MSC_RDPS_GeopotentialHeight_IsbL-0200_RLatLon0.09_PT065H.grib2 2026-04-28 02:59 263K
20260428T00Z_MSC_RDPS_GeopotentialHeight_IsbL-0225_RLatLon0.09_PT065H.grib2 2026-04-28 02:59 265K
20260428T00Z_MSC_RDPS_GeopotentialHeight_IsbL-0250_RLatLon0.09_PT065H.grib2 2026-04-28 02:59 265K
20260428T00Z_MSC_RDPS_GeopotentialHeight_IsbL-0275_RLatLon0.09_PT065H.grib2 2026-04-28 02:59 264K
20260428T00Z_MSC_RDPS_GeopotentialHeight_IsbL-0300_RLatLon0.09_PT065H.grib2 2026-04-28 02:59 264K
20260428T00Z_MSC_RDPS_GeopotentialHeight_IsbL-0350_RLatLon0.09_PT065H.grib2 2026-04-28 02:59 230K
20260428T00Z_MSC_RDPS_GeopotentialHeight_IsbL-0400_RLatLon0.09_PT065H.grib2 2026-04-28 02:59 226K
20260428T00Z_MSC_RDPS_GeopotentialHeight_IsbL-0450_RLatLon0.09_PT065H.grib2 2026-04-28 02:59 294K
20260428T00Z_MSC_RDPS_GeopotentialHeight_IsbL-0500_RLatLon0.09_PT065H.grib2 2026-04-28 02:59 289K
20260428T00Z_MSC_RDPS_GeopotentialHeight_IsbL-0550_RLatLon0.09_PT065H.grib2 2026-04-28 02:59 284K
20260428T00Z_MSC_RDPS_GeopotentialHeight_IsbL-0600_RLatLon0.09_PT065H.grib2 2026-04-28 02:59 282K
20260428T00Z_MSC_RDPS_GeopotentialHeight_IsbL-0650_RLatLon0.09_PT065H.grib2 2026-04-28 02:59 251K
20260428T00Z_MSC_RDPS_GeopotentialHeight_IsbL-0700_RLatLon0.09_PT065H.grib2 2026-04-28 02:59 332K
20260428T00Z_MSC_RDPS_GeopotentialHeight_IsbL-0750_RLatLon0.09_PT065H.grib2 2026-04-28 02:59 336K
20260428T00Z_MSC_RDPS_GeopotentialHeight_IsbL-0800_RLatLon0.09_PT065H.grib2 2026-04-28 02:59 344K
20260428T00Z_MSC_RDPS_GeopotentialHeight_IsbL-0850_RLatLon0.09_PT065H.grib2 2026-04-28 02:59 354K
20260428T00Z_MSC_RDPS_GeopotentialHeight_IsbL-0875_RLatLon0.09_PT065H.grib2 2026-04-28 02:59 392K
20260428T00Z_MSC_RDPS_GeopotentialHeight_IsbL-0900_RLatLon0.09_PT065H.grib2 2026-04-28 02:59 395K
20260428T00Z_MSC_RDPS_GeopotentialHeight_IsbL-0925_RLatLon0.09_PT065H.grib2 2026-04-28 02:59 398K
20260428T00Z_MSC_RDPS_GeopotentialHeight_IsbL-0950_RLatLon0.09_PT065H.grib2 2026-04-28 02:59 402K
20260428T00Z_MSC_RDPS_GeopotentialHeight_IsbL-0970_RLatLon0.09_PT065H.grib2 2026-04-28 02:59 409K
20260428T00Z_MSC_RDPS_GeopotentialHeight_IsbL-0985_RLatLon0.09_PT065H.grib2 2026-04-28 02:59 420K
20260428T00Z_MSC_RDPS_GeopotentialHeight_IsbL-1000_RLatLon0.09_PT065H.grib2 2026-04-28 02:59 434K
20260428T00Z_MSC_RDPS_GeopotentialHeight_IsbL-1015_RLatLon0.09_PT065H.grib2 2026-04-28 02:59 451K
20260428T00Z_MSC_RDPS_Humidex_Sfc_RLatLon0.09_PT065H.grib2 2026-04-28 02:59 2.4M
20260428T00Z_MSC_RDPS_IcePellets-Accum1h_Sfc_RLatLon0.09_PT065H.grib2 2026-04-28 02:59 2.2K
20260428T00Z_MSC_RDPS_IcePellets-Accum_Sfc_RLatLon0.09_PT065H.grib2 2026-04-28 02:59 33K
20260428T00Z_MSC_RDPS_KIndex_Sfc_RLatLon0.09_PT065H.grib2 2026-04-28 02:59 2.5M
20260428T00Z_MSC_RDPS_LatentHeatNetFlux_Sfc_RLatLon0.09_PT065H.grib2 2026-04-28 02:59 300K
20260428T00Z_MSC_RDPS_LiftedIndex-MU-VT_IsbL-0500_RLatLon0.09_PT065H.grib2 2026-04-28 02:59 2.4M
20260428T00Z_MSC_RDPS_NetLongwaveRadiationFlux-Accum_Sfc_RLatLon0.09_PT065H.grib2 2026-04-28 02:59 585K
20260428T00Z_MSC_RDPS_NetShortwaveRadiationFlux-Accum_Sfc_RLatLon0.09_PT065H.grib2 2026-04-28 02:59 594K
20260428T00Z_MSC_RDPS_PlanetaryBoundaryLayerHeight_Sfc_RLatLon0.09_PT065H.grib2 2026-04-28 02:59 1.0M
20260428T00Z_MSC_RDPS_Precip-Accum1h_Sfc_RLatLon0.09_PT065H.grib2 2026-04-28 02:59 1.2M
20260428T00Z_MSC_RDPS_Precip-Accum_Sfc_RLatLon0.09_PT065H.grib2 2026-04-28 02:59 2.1M
20260428T00Z_MSC_RDPS_PrecipRate_Sfc_RLatLon0.09_PT065H.grib2 2026-04-28 02:59 155K
20260428T00Z_MSC_RDPS_PrecipType-Instant_Sfc_RLatLon0.09_PT065H.grib2 2026-04-28 02:59 537K
20260428T00Z_MSC_RDPS_Pressure-Trend3h_Sfc_RLatLon0.09_PT065H.grib2 2026-04-28 02:59 1.2M
20260428T00Z_MSC_RDPS_Pressure_MSL_RLatLon0.09_PT065H.grib2 2026-04-28 02:59 297K
20260428T00Z_MSC_RDPS_Pressure_PVU-1.5_RLatLon0.09_PT065H.grib2 2026-04-28 02:59 2.3M
20260428T00Z_MSC_RDPS_Pressure_PVU-1_RLatLon0.09_PT065H.grib2 2026-04-28 02:59 2.4M
20260428T00Z_MSC_RDPS_Pressure_PVU-2_RLatLon0.09_PT065H.grib2 2026-04-28 02:59 2.4M
20260428T00Z_MSC_RDPS_Pressure_Sfc_RLatLon0.09_PT065H.grib2 2026-04-28 02:59 500K
20260428T00Z_MSC_RDPS_RadiativeTemp_Sfc_RLatLon0.09_PT065H.grib2 2026-04-28 02:59 328K
20260428T00Z_MSC_RDPS_Rain-Accum1h_Sfc_RLatLon0.09_PT065H.grib2 2026-04-28 02:59 565K
20260428T00Z_MSC_RDPS_Rain-Accum_Sfc_RLatLon0.09_PT065H.grib2 2026-04-28 02:59 1.7M
20260428T00Z_MSC_RDPS_RelativeHumidity_AGL-2m_RLatLon0.09_PT065H.grib2 2026-04-28 02:59 1.0M
20260428T00Z_MSC_RDPS_RelativeHumidity_IsbL-0010_RLatLon0.09_PT065H.grib2 2026-04-28 02:59 628K
20260428T00Z_MSC_RDPS_RelativeHumidity_IsbL-0020_RLatLon0.09_PT065H.grib2 2026-04-28 02:59 673K
20260428T00Z_MSC_RDPS_RelativeHumidity_IsbL-0030_RLatLon0.09_PT065H.grib2 2026-04-28 02:59 606K
20260428T00Z_MSC_RDPS_RelativeHumidity_IsbL-0050_RLatLon0.09_PT065H.grib2 2026-04-28 02:59 369K
20260428T00Z_MSC_RDPS_RelativeHumidity_IsbL-0100_RLatLon0.09_PT065H.grib2 2026-04-28 02:59 277K
20260428T00Z_MSC_RDPS_RelativeHumidity_IsbL-0150_RLatLon0.09_PT065H.grib2 2026-04-28 02:59 407K
20260428T00Z_MSC_RDPS_RelativeHumidity_IsbL-0175_RLatLon0.09_PT065H.grib2 2026-04-28 02:59 474K
20260428T00Z_MSC_RDPS_RelativeHumidity_IsbL-0200_RLatLon0.09_PT065H.grib2 2026-04-28 02:59 552K
20260428T00Z_MSC_RDPS_RelativeHumidity_IsbL-0225_RLatLon0.09_PT065H.grib2 2026-04-28 02:59 625K
20260428T00Z_MSC_RDPS_RelativeHumidity_IsbL-0250_RLatLon0.09_PT065H.grib2 2026-04-28 02:59 699K
20260428T00Z_MSC_RDPS_RelativeHumidity_IsbL-0275_RLatLon0.09_PT065H.grib2 2026-04-28 02:59 722K
20260428T00Z_MSC_RDPS_RelativeHumidity_IsbL-0300_RLatLon0.09_PT065H.grib2 2026-04-28 02:59 766K
20260428T00Z_MSC_RDPS_RelativeHumidity_IsbL-0350_RLatLon0.09_PT065H.grib2 2026-04-28 02:59 780K
20260428T00Z_MSC_RDPS_RelativeHumidity_IsbL-0400_RLatLon0.09_PT065H.grib2 2026-04-28 02:59 789K
20260428T00Z_MSC_RDPS_RelativeHumidity_IsbL-0450_RLatLon0.09_PT065H.grib2 2026-04-28 02:59 792K
20260428T00Z_MSC_RDPS_RelativeHumidity_IsbL-0500_RLatLon0.09_PT065H.grib2 2026-04-28 02:59 799K
20260428T00Z_MSC_RDPS_RelativeHumidity_IsbL-0550_RLatLon0.09_PT065H.grib2 2026-04-28 02:59 819K
20260428T00Z_MSC_RDPS_RelativeHumidity_IsbL-0600_RLatLon0.09_PT065H.grib2 2026-04-28 02:59 846K
20260428T00Z_MSC_RDPS_RelativeHumidity_IsbL-0650_RLatLon0.09_PT065H.grib2 2026-04-28 02:59 859K
20260428T00Z_MSC_RDPS_RelativeHumidity_IsbL-0700_RLatLon0.09_PT065H.grib2 2026-04-28 02:59 882K
20260428T00Z_MSC_RDPS_RelativeHumidity_IsbL-0750_RLatLon0.09_PT065H.grib2 2026-04-28 02:59 922K
20260428T00Z_MSC_RDPS_RelativeHumidity_IsbL-0800_RLatLon0.09_PT065H.grib2 2026-04-28 02:59 1.0M
20260428T00Z_MSC_RDPS_RelativeHumidity_IsbL-0850_RLatLon0.09_PT065H.grib2 2026-04-28 02:59 1.0M
20260428T00Z_MSC_RDPS_RelativeHumidity_IsbL-0875_RLatLon0.09_PT065H.grib2 2026-04-28 02:59 1.1M
20260428T00Z_MSC_RDPS_RelativeHumidity_IsbL-0900_RLatLon0.09_PT065H.grib2 2026-04-28 02:59 1.1M
20260428T00Z_MSC_RDPS_RelativeHumidity_IsbL-0925_RLatLon0.09_PT065H.grib2 2026-04-28 02:59 1.1M
20260428T00Z_MSC_RDPS_RelativeHumidity_IsbL-0950_RLatLon0.09_PT065H.grib2 2026-04-28 02:59 1.1M
20260428T00Z_MSC_RDPS_RelativeHumidity_IsbL-0970_RLatLon0.09_PT065H.grib2 2026-04-28 02:59 1.1M
20260428T00Z_MSC_RDPS_RelativeHumidity_IsbL-0985_RLatLon0.09_PT065H.grib2 2026-04-28 02:59 1.0M
20260428T00Z_MSC_RDPS_RelativeHumidity_IsbL-1000_RLatLon0.09_PT065H.grib2 2026-04-28 02:59 1.0M
20260428T00Z_MSC_RDPS_RelativeHumidity_IsbL-1015_RLatLon0.09_PT065H.grib2 2026-04-28 02:59 1.0M
20260428T00Z_MSC_RDPS_Runoff-Accum_Sfc_RLatLon0.09_PT065H.grib2 2026-04-28 02:59 57K
20260428T00Z_MSC_RDPS_SWEATIndex_Sfc_RLatLon0.09_PT065H.grib2 2026-04-28 02:59 2.4M
20260428T00Z_MSC_RDPS_SeeingIndex_EAtm_RLatLon0.09_PT065H.grib2 2026-04-28 02:59 1.0M
20260428T00Z_MSC_RDPS_SensibleHeatNetFlux_Sfc_RLatLon0.09_PT065H.grib2 2026-04-28 02:59 359K
20260428T00Z_MSC_RDPS_ShowalterIndex_IsbL-0500_RLatLon0.09_PT065H.grib2 2026-04-28 02:59 2.6M
20260428T00Z_MSC_RDPS_SkyTransparencyIndex_EAtm_RLatLon0.09_PT065H.grib2 2026-04-28 02:59 682K
20260428T00Z_MSC_RDPS_Snow-Accum1h_Sfc_RLatLon0.09_PT065H.grib2 2026-04-28 02:59 532K
20260428T00Z_MSC_RDPS_Snow-Accum_Sfc_RLatLon0.09_PT065H.grib2 2026-04-28 02:59 796K
20260428T00Z_MSC_RDPS_SnowDensity_Sfc_RLatLon0.09_PT065H.grib2 2026-04-28 02:59 184K
20260428T00Z_MSC_RDPS_SnowDepth_Sfc_RLatLon0.09_PT065H.grib2 2026-04-28 02:59 688K
20260428T00Z_MSC_RDPS_SoilTemp_DBS-0to10cm_RLatLon0.09_PT065H.grib2 2026-04-28 02:59 241K
20260428T00Z_MSC_RDPS_SoilTemp_Sfc_RLatLon0.09_PT065H.grib2 2026-04-28 02:59 294K
20260428T00Z_MSC_RDPS_SoilVolumetricIceContent_Sfc_RLatLon0.09_PT065H.grib2 2026-04-28 02:59 164K
20260428T00Z_MSC_RDPS_SoilVolumetricWaterContent_DBS-0to10cm_RLatLon0.09_PT065H.grib2 2026-04-28 02:59 268K
20260428T00Z_MSC_RDPS_SoilVolumetricWaterContent_DBS-0to1cm_RLatLon0.09_PT065H.grib2 2026-04-28 02:59 338K
20260428T00Z_MSC_RDPS_SpecificHumidity_AGL-120m_RLatLon0.09_PT065H.grib2 2026-04-28 02:59 499K
20260428T00Z_MSC_RDPS_SpecificHumidity_AGL-2m_RLatLon0.09_PT065H.grib2 2026-04-28 02:59 668K
20260428T00Z_MSC_RDPS_SpecificHumidity_AGL-40m_RLatLon0.09_PT065H.grib2 2026-04-28 02:59 504K
20260428T00Z_MSC_RDPS_SpecificHumidity_AGL-80m_RLatLon0.09_PT065H.grib2 2026-04-28 02:59 501K
20260428T00Z_MSC_RDPS_SpecificHumidity_IsbL-0001_RLatLon0.09_PT065H.grib2 2026-04-28 02:59 366K
20260428T00Z_MSC_RDPS_SpecificHumidity_IsbL-0005_RLatLon0.09_PT065H.grib2 2026-04-28 02:59 355K
20260428T00Z_MSC_RDPS_SpecificHumidity_IsbL-0010_RLatLon0.09_PT065H.grib2 2026-04-28 02:59 393K
20260428T00Z_MSC_RDPS_SpecificHumidity_IsbL-0020_RLatLon0.09_PT065H.grib2 2026-04-28 02:59 380K
20260428T00Z_MSC_RDPS_SpecificHumidity_IsbL-0030_RLatLon0.09_PT065H.grib2 2026-04-28 02:59 362K
20260428T00Z_MSC_RDPS_SpecificHumidity_IsbL-0050_RLatLon0.09_PT065H.grib2 2026-04-28 02:59 450K
20260428T00Z_MSC_RDPS_SpecificHumidity_IsbL-0100_RLatLon0.09_PT065H.grib2 2026-04-28 02:59 344K
20260428T00Z_MSC_RDPS_SpecificHumidity_IsbL-0150_RLatLon0.09_PT065H.grib2 2026-04-28 02:59 450K
20260428T00Z_MSC_RDPS_SpecificHumidity_IsbL-0175_RLatLon0.09_PT065H.grib2 2026-04-28 02:59 430K
20260428T00Z_MSC_RDPS_SpecificHumidity_IsbL-0200_RLatLon0.09_PT065H.grib2 2026-04-28 02:59 447K
20260428T00Z_MSC_RDPS_SpecificHumidity_IsbL-0225_RLatLon0.09_PT065H.grib2 2026-04-28 02:59 453K
20260428T00Z_MSC_RDPS_SpecificHumidity_IsbL-0250_RLatLon0.09_PT065H.grib2 2026-04-28 02:59 514K
20260428T00Z_MSC_RDPS_SpecificHumidity_IsbL-0275_RLatLon0.09_PT065H.grib2 2026-04-28 02:59 472K
20260428T00Z_MSC_RDPS_SpecificHumidity_IsbL-0300_RLatLon0.09_PT065H.grib2 2026-04-28 02:59 447K
20260428T00Z_MSC_RDPS_SpecificHumidity_IsbL-0350_RLatLon0.09_PT065H.grib2 2026-04-28 02:59 535K
20260428T00Z_MSC_RDPS_SpecificHumidity_IsbL-0400_RLatLon0.09_PT065H.grib2 2026-04-28 02:59 513K
20260428T00Z_MSC_RDPS_SpecificHumidity_IsbL-0450_RLatLon0.09_PT065H.grib2 2026-04-28 02:59 564K
20260428T00Z_MSC_RDPS_SpecificHumidity_IsbL-0500_RLatLon0.09_PT065H.grib2 2026-04-28 02:59 501K
20260428T00Z_MSC_RDPS_SpecificHumidity_IsbL-0550_RLatLon0.09_PT065H.grib2 2026-04-28 02:59 577K
20260428T00Z_MSC_RDPS_SpecificHumidity_IsbL-0600_RLatLon0.09_PT065H.grib2 2026-04-28 02:59 636K
20260428T00Z_MSC_RDPS_SpecificHumidity_IsbL-0650_RLatLon0.09_PT065H.grib2 2026-04-28 02:59 554K
20260428T00Z_MSC_RDPS_SpecificHumidity_IsbL-0700_RLatLon0.09_PT065H.grib2 2026-04-28 02:59 595K
20260428T00Z_MSC_RDPS_SpecificHumidity_IsbL-0750_RLatLon0.09_PT065H.grib2 2026-04-28 02:59 650K
20260428T00Z_MSC_RDPS_SpecificHumidity_IsbL-0800_RLatLon0.09_PT065H.grib2 2026-04-28 02:59 729K
20260428T00Z_MSC_RDPS_SpecificHumidity_IsbL-0850_RLatLon0.09_PT065H.grib2 2026-04-28 02:59 804K
20260428T00Z_MSC_RDPS_SpecificHumidity_IsbL-0875_RLatLon0.09_PT065H.grib2 2026-04-28 02:59 833K
20260428T00Z_MSC_RDPS_SpecificHumidity_IsbL-0900_RLatLon0.09_PT065H.grib2 2026-04-28 02:59 848K
20260428T00Z_MSC_RDPS_SpecificHumidity_IsbL-0925_RLatLon0.09_PT065H.grib2 2026-04-28 02:59 708K
20260428T00Z_MSC_RDPS_SpecificHumidity_IsbL-0950_RLatLon0.09_PT065H.grib2 2026-04-28 02:59 711K
20260428T00Z_MSC_RDPS_SpecificHumidity_IsbL-0970_RLatLon0.09_PT065H.grib2 2026-04-28 02:59 702K
20260428T00Z_MSC_RDPS_SpecificHumidity_IsbL-0985_RLatLon0.09_PT065H.grib2 2026-04-28 02:59 694K
20260428T00Z_MSC_RDPS_SpecificHumidity_IsbL-1000_RLatLon0.09_PT065H.grib2 2026-04-28 02:59 687K
20260428T00Z_MSC_RDPS_SpecificHumidity_IsbL-1015_RLatLon0.09_PT065H.grib2 2026-04-28 02:59 678K
20260428T00Z_MSC_RDPS_SpecificHumidity_Sfc_RLatLon0.09_PT065H.grib2 2026-04-28 02:59 337K
20260428T00Z_MSC_RDPS_StormRelativeHelicity_EtaL-10000_RLatLon0.09_PT065H.grib2 2026-04-28 02:59 1.1M
20260428T00Z_MSC_RDPS_StormSeverityIndex_EtaL-10000_RLatLon0.09_PT065H.grib2 2026-04-28 02:59 1.2M
20260428T00Z_MSC_RDPS_Thickness_IsbL-0850to0700_RLatLon0.09_PT065H.grib2 2026-04-28 02:59 178K
20260428T00Z_MSC_RDPS_Thickness_IsbL-1000to0500_RLatLon0.09_PT065H.grib2 2026-04-28 02:59 200K
20260428T00Z_MSC_RDPS_Thickness_IsbL-1000to0850_RLatLon0.09_PT065H.grib2 2026-04-28 02:59 190K
20260428T00Z_MSC_RDPS_TotalCloudCover_Sfc_RLatLon0.09_PT065H.grib2 2026-04-28 02:59 649K
20260428T00Z_MSC_RDPS_TotalTotalsIndex_Sfc_RLatLon0.09_PT065H.grib2 2026-04-28 02:59 2.4M
20260428T00Z_MSC_RDPS_UVIndex-ClearSky_Sfc_RLatLon0.09_PT065H.grib2 2026-04-28 02:59 222K
20260428T00Z_MSC_RDPS_UVIndex_Sfc_RLatLon0.09_PT065H.grib2 2026-04-28 02:59 503K
20260428T00Z_MSC_RDPS_UpwardLongwaveRadiationFlux_NTAtm_RLatLon0.09_PT065H.grib2 2026-04-28 02:59 491K
20260428T00Z_MSC_RDPS_UpwardShortwaveRadiationFlux_NTAtm_RLatLon0.09_PT065H.grib2 2026-04-28 02:59 534K
20260428T00Z_MSC_RDPS_VerticalVelocity_IsbL-0250_RLatLon0.09_PT065H.grib2 2026-04-28 02:59 551K
20260428T00Z_MSC_RDPS_VerticalVelocity_IsbL-0500_RLatLon0.09_PT065H.grib2 2026-04-28 02:59 540K
20260428T00Z_MSC_RDPS_VerticalVelocity_IsbL-0700_RLatLon0.09_PT065H.grib2 2026-04-28 02:59 587K
20260428T00Z_MSC_RDPS_VerticalVelocity_IsbL-0850_RLatLon0.09_PT065H.grib2 2026-04-28 02:59 523K
20260428T00Z_MSC_RDPS_VerticalWindShear_EtaL-6500_RLatLon0.09_PT065H.grib2 2026-04-28 02:59 1.2M
20260428T00Z_MSC_RDPS_WindChill_Sfc_RLatLon0.09_PT065H.grib2 2026-04-28 02:59 1.1M
20260428T00Z_MSC_RDPS_WindDir_AGL-10m_RLatLon0.09_PT065H.grib2 2026-04-28 02:59 1.0M
20260428T00Z_MSC_RDPS_WindDir_AGL-120m_RLatLon0.09_PT065H.grib2 2026-04-28 02:59 624K
20260428T00Z_MSC_RDPS_WindDir_AGL-40m_RLatLon0.09_PT065H.grib2 2026-04-28 02:59 645K
20260428T00Z_MSC_RDPS_WindDir_AGL-80m_RLatLon0.09_PT065H.grib2 2026-04-28 02:59 632K
20260428T00Z_MSC_RDPS_WindDir_IsbL-0001_RLatLon0.09_PT065H.grib2 2026-04-28 02:59 297K
20260428T00Z_MSC_RDPS_WindDir_IsbL-0005_RLatLon0.09_PT065H.grib2 2026-04-28 02:59 365K
20260428T00Z_MSC_RDPS_WindDir_IsbL-0010_RLatLon0.09_PT065H.grib2 2026-04-28 02:59 383K
20260428T00Z_MSC_RDPS_WindDir_IsbL-0020_RLatLon0.09_PT065H.grib2 2026-04-28 02:59 411K
20260428T00Z_MSC_RDPS_WindDir_IsbL-0030_RLatLon0.09_PT065H.grib2 2026-04-28 02:59 414K
20260428T00Z_MSC_RDPS_WindDir_IsbL-0050_RLatLon0.09_PT065H.grib2 2026-04-28 02:59 433K
20260428T00Z_MSC_RDPS_WindDir_IsbL-0100_RLatLon0.09_PT065H.grib2 2026-04-28 02:59 437K
20260428T00Z_MSC_RDPS_WindDir_IsbL-0150_RLatLon0.09_PT065H.grib2 2026-04-28 02:59 418K
20260428T00Z_MSC_RDPS_WindDir_IsbL-0175_RLatLon0.09_PT065H.grib2 2026-04-28 02:59 441K
20260428T00Z_MSC_RDPS_WindDir_IsbL-0200_RLatLon0.09_PT065H.grib2 2026-04-28 02:59 451K
20260428T00Z_MSC_RDPS_WindDir_IsbL-0225_RLatLon0.09_PT065H.grib2 2026-04-28 02:59 458K
20260428T00Z_MSC_RDPS_WindDir_IsbL-0250_RLatLon0.09_PT065H.grib2 2026-04-28 02:59 458K
20260428T00Z_MSC_RDPS_WindDir_IsbL-0275_RLatLon0.09_PT065H.grib2 2026-04-28 02:59 484K
20260428T00Z_MSC_RDPS_WindDir_IsbL-0300_RLatLon0.09_PT065H.grib2 2026-04-28 02:59 480K
20260428T00Z_MSC_RDPS_WindDir_IsbL-0350_RLatLon0.09_PT065H.grib2 2026-04-28 02:59 503K
20260428T00Z_MSC_RDPS_WindDir_IsbL-0400_RLatLon0.09_PT065H.grib2 2026-04-28 02:59 509K
20260428T00Z_MSC_RDPS_WindDir_IsbL-0450_RLatLon0.09_PT065H.grib2 2026-04-28 02:59 520K
20260428T00Z_MSC_RDPS_WindDir_IsbL-0500_RLatLon0.09_PT065H.grib2 2026-04-28 02:59 534K
20260428T00Z_MSC_RDPS_WindDir_IsbL-0550_RLatLon0.09_PT065H.grib2 2026-04-28 02:59 551K
20260428T00Z_MSC_RDPS_WindDir_IsbL-0600_RLatLon0.09_PT065H.grib2 2026-04-28 02:59 586K
20260428T00Z_MSC_RDPS_WindDir_IsbL-0650_RLatLon0.09_PT065H.grib2 2026-04-28 02:59 636K
20260428T00Z_MSC_RDPS_WindDir_IsbL-0700_RLatLon0.09_PT065H.grib2 2026-04-28 02:59 684K
20260428T00Z_MSC_RDPS_WindDir_IsbL-0750_RLatLon0.09_PT065H.grib2 2026-04-28 02:59 726K
20260428T00Z_MSC_RDPS_WindDir_IsbL-0800_RLatLon0.09_PT065H.grib2 2026-04-28 02:59 788K
20260428T00Z_MSC_RDPS_WindDir_IsbL-0850_RLatLon0.09_PT065H.grib2 2026-04-28 02:59 864K
20260428T00Z_MSC_RDPS_WindDir_IsbL-0875_RLatLon0.09_PT065H.grib2 2026-04-28 02:59 891K
20260428T00Z_MSC_RDPS_WindDir_IsbL-0900_RLatLon0.09_PT065H.grib2 2026-04-28 02:59 909K
20260428T00Z_MSC_RDPS_WindDir_IsbL-0925_RLatLon0.09_PT065H.grib2 2026-04-28 02:59 921K
20260428T00Z_MSC_RDPS_WindDir_IsbL-0950_RLatLon0.09_PT065H.grib2 2026-04-28 02:59 921K
20260428T00Z_MSC_RDPS_WindDir_IsbL-0970_RLatLon0.09_PT065H.grib2 2026-04-28 02:59 930K
20260428T00Z_MSC_RDPS_WindDir_IsbL-0985_RLatLon0.09_PT065H.grib2 2026-04-28 02:59 941K
20260428T00Z_MSC_RDPS_WindDir_IsbL-1000_RLatLon0.09_PT065H.grib2 2026-04-28 02:59 954K
20260428T00Z_MSC_RDPS_WindDir_IsbL-1015_RLatLon0.09_PT065H.grib2 2026-04-28 02:59 970K
20260428T00Z_MSC_RDPS_WindGust-Max_AGL-10m_RLatLon0.09_PT065H.grib2 2026-04-28 02:59 1.0M
20260428T00Z_MSC_RDPS_WindGust-Min_AGL-10m_RLatLon0.09_PT065H.grib2 2026-04-28 02:59 1.0M
20260428T00Z_MSC_RDPS_WindGust_AGL-10m_RLatLon0.09_PT065H.grib2 2026-04-28 02:59 1.0M
20260428T00Z_MSC_RDPS_WindSpeed_AGL-10m_RLatLon0.09_PT065H.grib2 2026-04-28 02:59 837K
20260428T00Z_MSC_RDPS_WindSpeed_AGL-120m_RLatLon0.09_PT065H.grib2 2026-04-28 02:59 546K
20260428T00Z_MSC_RDPS_WindSpeed_AGL-40m_RLatLon0.09_PT065H.grib2 2026-04-28 02:59 536K
20260428T00Z_MSC_RDPS_WindSpeed_AGL-80m_RLatLon0.09_PT065H.grib2 2026-04-28 02:59 534K
20260428T00Z_MSC_RDPS_WindSpeed_IsbL-0001_RLatLon0.09_PT065H.grib2 2026-04-28 02:59 336K
20260428T00Z_MSC_RDPS_WindSpeed_IsbL-0005_RLatLon0.09_PT065H.grib2 2026-04-28 02:59 385K
20260428T00Z_MSC_RDPS_WindSpeed_IsbL-0010_RLatLon0.09_PT065H.grib2 2026-04-28 02:59 403K
20260428T00Z_MSC_RDPS_WindSpeed_IsbL-0020_RLatLon0.09_PT065H.grib2 2026-04-28 02:59 328K
20260428T00Z_MSC_RDPS_WindSpeed_IsbL-0030_RLatLon0.09_PT065H.grib2 2026-04-28 02:59 327K
20260428T00Z_MSC_RDPS_WindSpeed_IsbL-0050_RLatLon0.09_PT065H.grib2 2026-04-28 02:59 352K
20260428T00Z_MSC_RDPS_WindSpeed_IsbL-0100_RLatLon0.09_PT065H.grib2 2026-04-28 02:59 475K
20260428T00Z_MSC_RDPS_WindSpeed_IsbL-0150_RLatLon0.09_PT065H.grib2 2026-04-28 02:59 380K
20260428T00Z_MSC_RDPS_WindSpeed_IsbL-0175_RLatLon0.09_PT065H.grib2 2026-04-28 02:59 425K
20260428T00Z_MSC_RDPS_WindSpeed_IsbL-0200_RLatLon0.09_PT065H.grib2 2026-04-28 02:59 441K
20260428T00Z_MSC_RDPS_WindSpeed_IsbL-0225_RLatLon0.09_PT065H.grib2 2026-04-28 02:59 449K
20260428T00Z_MSC_RDPS_WindSpeed_IsbL-0250_RLatLon0.09_PT065H.grib2 2026-04-28 02:59 453K
20260428T00Z_MSC_RDPS_WindSpeed_IsbL-0275_RLatLon0.09_PT065H.grib2 2026-04-28 02:59 472K
20260428T00Z_MSC_RDPS_WindSpeed_IsbL-0300_RLatLon0.09_PT065H.grib2 2026-04-28 02:59 469K
20260428T00Z_MSC_RDPS_WindSpeed_IsbL-0350_RLatLon0.09_PT065H.grib2 2026-04-28 02:59 479K
20260428T00Z_MSC_RDPS_WindSpeed_IsbL-0400_RLatLon0.09_PT065H.grib2 2026-04-28 02:59 480K
20260428T00Z_MSC_RDPS_WindSpeed_IsbL-0450_RLatLon0.09_PT065H.grib2 2026-04-28 02:59 462K
20260428T00Z_MSC_RDPS_WindSpeed_IsbL-0500_RLatLon0.09_PT065H.grib2 2026-04-28 02:59 462K
20260428T00Z_MSC_RDPS_WindSpeed_IsbL-0550_RLatLon0.09_PT065H.grib2 2026-04-28 02:59 461K
20260428T00Z_MSC_RDPS_WindSpeed_IsbL-0600_RLatLon0.09_PT065H.grib2 2026-04-28 02:59 468K
20260428T00Z_MSC_RDPS_WindSpeed_IsbL-0650_RLatLon0.09_PT065H.grib2 2026-04-28 02:59 608K
20260428T00Z_MSC_RDPS_WindSpeed_IsbL-0700_RLatLon0.09_PT065H.grib2 2026-04-28 02:59 634K
20260428T00Z_MSC_RDPS_WindSpeed_IsbL-0750_RLatLon0.09_PT065H.grib2 2026-04-28 02:59 707K
20260428T00Z_MSC_RDPS_WindSpeed_IsbL-0800_RLatLon0.09_PT065H.grib2 2026-04-28 02:59 752K
20260428T00Z_MSC_RDPS_WindSpeed_IsbL-0850_RLatLon0.09_PT065H.grib2 2026-04-28 02:59 810K
20260428T00Z_MSC_RDPS_WindSpeed_IsbL-0875_RLatLon0.09_PT065H.grib2 2026-04-28 02:59 832K
20260428T00Z_MSC_RDPS_WindSpeed_IsbL-0900_RLatLon0.09_PT065H.grib2 2026-04-28 02:59 847K
20260428T00Z_MSC_RDPS_WindSpeed_IsbL-0925_RLatLon0.09_PT065H.grib2 2026-04-28 02:59 858K
20260428T00Z_MSC_RDPS_WindSpeed_IsbL-0950_RLatLon0.09_PT065H.grib2 2026-04-28 02:59 856K
20260428T00Z_MSC_RDPS_WindSpeed_IsbL-0970_RLatLon0.09_PT065H.grib2 2026-04-28 02:59 858K
20260428T00Z_MSC_RDPS_WindSpeed_IsbL-0985_RLatLon0.09_PT065H.grib2 2026-04-28 02:59 851K
20260428T00Z_MSC_RDPS_WindSpeed_IsbL-1000_RLatLon0.09_PT065H.grib2 2026-04-28 02:59 847K
20260428T00Z_MSC_RDPS_WindSpeed_IsbL-1015_RLatLon0.09_PT065H.grib2 2026-04-28 02:59 838K
20260428T00Z_MSC_RDPS_WindU_AGL-10m_RLatLon0.09_PT065H.grib2 2026-04-28 02:59 433K
20260428T00Z_MSC_RDPS_WindU_AGL-120m_RLatLon0.09_PT065H.grib2 2026-04-28 02:59 534K
20260428T00Z_MSC_RDPS_WindU_AGL-40m_RLatLon0.09_PT065H.grib2 2026-04-28 02:59 536K
20260428T00Z_MSC_RDPS_WindU_AGL-80m_RLatLon0.09_PT065H.grib2 2026-04-28 02:59 535K
20260428T00Z_MSC_RDPS_WindU_IsbL-0001_RLatLon0.09_PT065H.grib2 2026-04-28 02:59 245K
20260428T00Z_MSC_RDPS_WindU_IsbL-0005_RLatLon0.09_PT065H.grib2 2026-04-28 02:59 286K
20260428T00Z_MSC_RDPS_WindU_IsbL-0010_RLatLon0.09_PT065H.grib2 2026-04-28 02:59 299K
20260428T00Z_MSC_RDPS_WindU_IsbL-0020_RLatLon0.09_PT065H.grib2 2026-04-28 02:59 356K
20260428T00Z_MSC_RDPS_WindU_IsbL-0030_RLatLon0.09_PT065H.grib2 2026-04-28 02:59 316K
20260428T00Z_MSC_RDPS_WindU_IsbL-0050_RLatLon0.09_PT065H.grib2 2026-04-28 02:59 378K
20260428T00Z_MSC_RDPS_WindU_IsbL-0100_RLatLon0.09_PT065H.grib2 2026-04-28 02:59 432K
20260428T00Z_MSC_RDPS_WindU_IsbL-0150_RLatLon0.09_PT065H.grib2 2026-04-28 02:59 396K
20260428T00Z_MSC_RDPS_WindU_IsbL-0175_RLatLon0.09_PT065H.grib2 2026-04-28 02:59 419K
20260428T00Z_MSC_RDPS_WindU_IsbL-0200_RLatLon0.09_PT065H.grib2 2026-04-28 02:59 434K
20260428T00Z_MSC_RDPS_WindU_IsbL-0225_RLatLon0.09_PT065H.grib2 2026-04-28 02:59 342K
20260428T00Z_MSC_RDPS_WindU_IsbL-0250_RLatLon0.09_PT065H.grib2 2026-04-28 02:59 344K
20260428T00Z_MSC_RDPS_WindU_IsbL-0275_RLatLon0.09_PT065H.grib2 2026-04-28 02:59 359K
20260428T00Z_MSC_RDPS_WindU_IsbL-0300_RLatLon0.09_PT065H.grib2 2026-04-28 02:59 355K
20260428T00Z_MSC_RDPS_WindU_IsbL-0350_RLatLon0.09_PT065H.grib2 2026-04-28 02:59 364K
20260428T00Z_MSC_RDPS_WindU_IsbL-0400_RLatLon0.09_PT065H.grib2 2026-04-28 02:59 469K
20260428T00Z_MSC_RDPS_WindU_IsbL-0450_RLatLon0.09_PT065H.grib2 2026-04-28 02:59 468K
20260428T00Z_MSC_RDPS_WindU_IsbL-0500_RLatLon0.09_PT065H.grib2 2026-04-28 02:59 468K
20260428T00Z_MSC_RDPS_WindU_IsbL-0550_RLatLon0.09_PT065H.grib2 2026-04-28 02:59 450K
20260428T00Z_MSC_RDPS_WindU_IsbL-0600_RLatLon0.09_PT065H.grib2 2026-04-28 02:59 459K
20260428T00Z_MSC_RDPS_WindU_IsbL-0650_RLatLon0.09_PT065H.grib2 2026-04-28 02:59 478K
20260428T00Z_MSC_RDPS_WindU_IsbL-0700_RLatLon0.09_PT065H.grib2 2026-04-28 02:59 501K
20260428T00Z_MSC_RDPS_WindU_IsbL-0750_RLatLon0.09_PT065H.grib2 2026-04-28 02:59 654K
20260428T00Z_MSC_RDPS_WindU_IsbL-0800_RLatLon0.09_PT065H.grib2 2026-04-28 02:59 698K
20260428T00Z_MSC_RDPS_WindU_IsbL-0850_RLatLon0.09_PT065H.grib2 2026-04-28 02:59 754K
20260428T00Z_MSC_RDPS_WindU_IsbL-0875_RLatLon0.09_PT065H.grib2 2026-04-28 02:59 637K
20260428T00Z_MSC_RDPS_WindU_IsbL-0900_RLatLon0.09_PT065H.grib2 2026-04-28 02:59 649K
20260428T00Z_MSC_RDPS_WindU_IsbL-0925_RLatLon0.09_PT065H.grib2 2026-04-28 02:59 656K
20260428T00Z_MSC_RDPS_WindU_IsbL-0950_RLatLon0.09_PT065H.grib2 2026-04-28 02:59 652K
20260428T00Z_MSC_RDPS_WindU_IsbL-0970_RLatLon0.09_PT065H.grib2 2026-04-28 02:59 652K
20260428T00Z_MSC_RDPS_WindU_IsbL-0985_RLatLon0.09_PT065H.grib2 2026-04-28 02:59 790K
20260428T00Z_MSC_RDPS_WindU_IsbL-1000_RLatLon0.09_PT065H.grib2 2026-04-28 02:59 787K
20260428T00Z_MSC_RDPS_WindU_IsbL-1015_RLatLon0.09_PT065H.grib2 2026-04-28 02:59 782K
20260428T00Z_MSC_RDPS_WindV_AGL-10m_RLatLon0.09_PT065H.grib2 2026-04-28 02:59 415K
20260428T00Z_MSC_RDPS_WindV_AGL-120m_RLatLon0.09_PT065H.grib2 2026-04-28 02:59 531K
20260428T00Z_MSC_RDPS_WindV_AGL-40m_RLatLon0.09_PT065H.grib2 2026-04-28 02:59 532K
20260428T00Z_MSC_RDPS_WindV_AGL-80m_RLatLon0.09_PT065H.grib2 2026-04-28 02:59 531K
20260428T00Z_MSC_RDPS_WindV_IsbL-0001_RLatLon0.09_PT065H.grib2 2026-04-28 02:59 248K
20260428T00Z_MSC_RDPS_WindV_IsbL-0005_RLatLon0.09_PT065H.grib2 2026-04-28 02:59 288K
20260428T00Z_MSC_RDPS_WindV_IsbL-0010_RLatLon0.09_PT065H.grib2 2026-04-28 02:59 304K
20260428T00Z_MSC_RDPS_WindV_IsbL-0020_RLatLon0.09_PT065H.grib2 2026-04-28 02:59 322K
20260428T00Z_MSC_RDPS_WindV_IsbL-0030_RLatLon0.09_PT065H.grib2 2026-04-28 02:59 321K
20260428T00Z_MSC_RDPS_WindV_IsbL-0050_RLatLon0.09_PT065H.grib2 2026-04-28 02:59 346K
20260428T00Z_MSC_RDPS_WindV_IsbL-0100_RLatLon0.09_PT065H.grib2 2026-04-28 02:59 427K
20260428T00Z_MSC_RDPS_WindV_IsbL-0150_RLatLon0.09_PT065H.grib2 2026-04-28 02:59 392K
20260428T00Z_MSC_RDPS_WindV_IsbL-0175_RLatLon0.09_PT065H.grib2 2026-04-28 02:59 417K
20260428T00Z_MSC_RDPS_WindV_IsbL-0200_RLatLon0.09_PT065H.grib2 2026-04-28 02:59 334K
20260428T00Z_MSC_RDPS_WindV_IsbL-0225_RLatLon0.09_PT065H.grib2 2026-04-28 02:59 339K
20260428T00Z_MSC_RDPS_WindV_IsbL-0250_RLatLon0.09_PT065H.grib2 2026-04-28 02:59 440K
20260428T00Z_MSC_RDPS_WindV_IsbL-0275_RLatLon0.09_PT065H.grib2 2026-04-28 02:59 357K
20260428T00Z_MSC_RDPS_WindV_IsbL-0300_RLatLon0.09_PT065H.grib2 2026-04-28 02:59 353K
20260428T00Z_MSC_RDPS_WindV_IsbL-0350_RLatLon0.09_PT065H.grib2 2026-04-28 02:59 361K
20260428T00Z_MSC_RDPS_WindV_IsbL-0400_RLatLon0.09_PT065H.grib2 2026-04-28 02:59 464K
20260428T00Z_MSC_RDPS_WindV_IsbL-0450_RLatLon0.09_PT065H.grib2 2026-04-28 02:59 463K
20260428T00Z_MSC_RDPS_WindV_IsbL-0500_RLatLon0.09_PT065H.grib2 2026-04-28 02:59 464K
20260428T00Z_MSC_RDPS_WindV_IsbL-0550_RLatLon0.09_PT065H.grib2 2026-04-28 02:59 464K
20260428T00Z_MSC_RDPS_WindV_IsbL-0600_RLatLon0.09_PT065H.grib2 2026-04-28 02:59 472K
20260428T00Z_MSC_RDPS_WindV_IsbL-0650_RLatLon0.09_PT065H.grib2 2026-04-28 02:59 475K
20260428T00Z_MSC_RDPS_WindV_IsbL-0700_RLatLon0.09_PT065H.grib2 2026-04-28 02:59 497K
20260428T00Z_MSC_RDPS_WindV_IsbL-0750_RLatLon0.09_PT065H.grib2 2026-04-28 02:59 523K
20260428T00Z_MSC_RDPS_WindV_IsbL-0800_RLatLon0.09_PT065H.grib2 2026-04-28 02:59 691K
20260428T00Z_MSC_RDPS_WindV_IsbL-0850_RLatLon0.09_PT065H.grib2 2026-04-28 02:59 749K
20260428T00Z_MSC_RDPS_WindV_IsbL-0875_RLatLon0.09_PT065H.grib2 2026-04-28 02:59 771K
20260428T00Z_MSC_RDPS_WindV_IsbL-0900_RLatLon0.09_PT065H.grib2 2026-04-28 02:59 785K
20260428T00Z_MSC_RDPS_WindV_IsbL-0925_RLatLon0.09_PT065H.grib2 2026-04-28 02:59 794K
20260428T00Z_MSC_RDPS_WindV_IsbL-0950_RLatLon0.09_PT065H.grib2 2026-04-28 02:59 790K
20260428T00Z_MSC_RDPS_WindV_IsbL-0970_RLatLon0.09_PT065H.grib2 2026-04-28 02:59 838K
20260428T00Z_MSC_RDPS_WindV_IsbL-0985_RLatLon0.09_PT065H.grib2 2026-04-28 02:59 835K
20260428T00Z_MSC_RDPS_WindV_IsbL-1000_RLatLon0.09_PT065H.grib2 2026-04-28 02:59 830K
20260428T00Z_MSC_RDPS_WindV_IsbL-1015_RLatLon0.09_PT065H.grib2 2026-04-28 02:59 824K